Weather in Auki

Solomon Islands     8°46′18″S   160°41′54″E
temp.,
°C
wind,
m/s
gust,
m/s
humid.,
%
clouds,
%
prec.,
mm/h
press.,
hPa
HPBL,
m
19 june, sat
sat1923:00+24e2293100 0.9 101195
02:00+23e229373 0.8 1010117
05:00+24e239287 0.9 1009119
08:00+25e138853 0.1 1011193
11:00+29e246710 0.6 1011978
14:00+30ese1361100 0.6 10091013
17:00+27e1273100 1.3 1009431
20:00+24ene2391100 0.9 101183
20 june, sun
sun2023:00+24ene2389100 1.3 101293
02:00+23ene2389100 0.2 101189
05:00+23ene229191 0.5 101182
08:00+25ene128227 0.3 1013219
11:00+29e13608 0.3 10121101
14:00+28wsw117067 1.1 1010873
17:00+26sse118015 1.6 1011319
20:00+24e118895 0.1 1013102
21 june, mon
mon2123:00+23ese118981 0.1 101452
02:00+23se118896 0.0 1012199
05:00+23se118899 0.0 1013221
08:00+25e118358 0.0 1015195
11:00+29ssw125910 0.0 10141072
14:00+28s126933 0.4 1012710
17:00+26ene118235 1.7 1012265
20:00+24ene118989 0.6 101477
22 june, tue
tue2223:00+23e229141 0.6 101487
02:00+23e1292100 0.0 101288
05:00+24e129061 0.0 101298
08:00+25e12876 0.1 1014228
11:00+29e146713 0.4 1013942
14:00+29s126571 0.3 1011975
17:00+27ene128197 1.2 1011360
20:00+24ene229051 0.0 101399
23 june, wed
wed2323:00+24e229191 0.0 101376
02:00+23e229214 0.3 101290
05:00+23e12917 0.4 101279
08:00+25ese23885 0.1 1013238
11:00+29se146614 0.3 1012986
14:00+29ese136526 0.4 10101020
17:00+27ene247469 0.4 1010725
20:00+24ene229178 0.0 1012104